Wind_Speed
14 15 15 15 15 15 15 15 16 16 16 16 17 17 17 17 17 17 17 17 17 17 17 16 15 14 14 14 14 13 13 13 12 12 12 13 14 13 14 15 15 14 16 17 19 21 22 22 24 23 21 21 21 21 20 20 20 21 21 21 20 19 19 19 18 12 8 5 4 8 8 7 5 3 4 5 6 8 6 5 4 3 5 5 5 5 5 5
13 14 14 14 14 14 15 15 15 16 16 16 16 17 17 17 17 18 18 18 17 17 17 16 15 14 14 14 13 13 12 12 12 11 11 12 13 13 13 14 14 13 15 17 18 20 22 23 24 23 22 22 22 21 20 20 21 21 22 22 21 18 16 17 16 11 7 4 4 6 4 6 3 2 1 3 5 7 7 5 4 5 7 7 6 6 5 5
12 12 13 13 13 14 14 14 15 15 16 16 17 17 17 17 18 18 18 18 17 17 17 16 15 14 14 13 12 12 11 11 11 11 11 11 11 12 12 13 12 12 15 17 17 20 23 24 24 24 24 23 23 22 21 21 21 21 23 23 21 17 14 14 12 9 6 4 3 2 1 4 5 5 4 5 7 7 7 7 7 7 8 8 7 6 5 5
10 10 11 11 12 12 13 14 15 15 16 16 16 16 17 17 17 18 18 17 17 17 16 15 14 14 13 12 11 11 10 10 10 9 9 9 9 11 12 12 12 12 14 16 17 19 22 24 24 25 24 23 23 24 24 23 22 22 24 24 20 15 14 12 9 7 5 6 6 3 4 4 6 5 6 6 8 8 7 8 8 7 9 9 9 6 5 6
10 10 10 10 10 11 12 12 13 14 15 15 15 16 16 16 17 17 17 17 17 16 16 14 14 13 12 11 10 10 10 8 8 9 8 7 7 8 10 11 12 12 14 15 17 19 22 23 23 24 24 23 23 25 25 22 21 23 24 24 19 15 14 10 6 6 4 5 6 4 6 7 7 7 9 10 10 9 8 9 8 8 11 11 9 7 6 7
11 11 10 10 10 10 10 11 12 13 14 14 15 15 16 16 16 16 16 16 16 16 15 14 13 12 11 10 9 9 9 7 7 8 7 7 7 8 9 10 12 12 13 14 16 19 21 22 22 23 23 22 24 24 22 19 19 21 23 23 20 15 13 9 7 6 5 5 5 5 7 8 9 10 13 14 14 13 13 13 11 12 13 11 9 9 9 9
11 11 11 11 10 10 10 10 11 11 12 13 14 15 15 15 15 15 15 15 15 14 14 13 13 11 10 9 9 9 9 8 8 8 8 8 9 9 9 9 11 12 12 13 15 19 20 20 21 22 21 21 22 22 19 18 17 20 21 20 17 13 11 7 6 6 6 7 6 7 9 10 11 12 14 15 15 16 16 15 15 15 14 12 10 10 10 10
12 12 12 11 11 11 10 10 10 11 11 12 13 13 14 14 14 14 14 15 14 14 13 13 12 10 10 9 9 9 8 8 9 9 10 10 11 10 9 9 10 11 11 12 14 17 18 18 19 19 18 18 19 18 18 17 17 20 20 15 12 11 11 9 9 9 8 8 7 10 13 12 11 12 15 15 15 15 15 16 15 13 12 10 8 8 9 10
13 13 13 12 12 11 11 11 10 10 10 11 12 12 13 13 13 13 14 14 13 13 13 12 12 10 9 9 9 8 7 8 8 9 10 10 9 9 9 10 10 11 12 13 15 16 16 16 16 17 17 16 17 17 16 16 16 18 17 13 13 14 13 12 13 13 10 9 9 12 16 15 13 13 16 15 14 14 14 15 15 11 9 7 7 8 9 11
13 13 13 13 12 12 11 11 11 11 10 10 11 12 12 12 12 12 13 13 13 13 12 12 11 10 9 9 9 8 7 8 6 7 9 9 8 8 9 9 10 12 13 14 15 14 14 15 14 15 17 14 14 15 15 14 14 14 14 15 16 15 13 11 13 14 14 13 12 14 17 17 16 17 19 16 13 12 11 12 13 10 7 7 7 8 11 12
13 13 13 12 12 11 11 11 11 11 10 10 11 11 11 11 12 12 12 13 12 12 12 11 11 10 9 9 8 7 7 7 6 6 8 8 8 8 8 9 10 12 13 14 15 14 15 16 14 13 15 13 13 14 12 11 12 12 13 15 15 15 13 12 11 12 14 14 13 15 17 17 17 18 19 17 12 9 8 8 9 8 6 7 9 10 12 11
11 12 12 12 11 11 11 11 11 11 10 10 10 11 11 12 12 12 12 13 12 12 12 11 10 10 9 8 8 8 8 7 6 7 8 7 7 7 7 9 11 12 13 16 18 18 17 16 15 14 13 13 13 11 8 8 10 10 11 13 13 15 16 14 12 11 12 14 14 16 18 19 18 17 17 15 11 8 8 7 8 8 8 9 10 12 12 12
9 10 10 10 10 10 10 10 10 10 10 10 10 10 11 12 13 13 13 13 12 12 11 11 10 9 8 6 7 9 6 5 6 7 7 6 6 6 7 10 12 14 17 21 22 20 17 12 14 16 13 14 13 10 8 6 9 10 10 13 13 16 18 16 15 15 16 17 19 18 20 22 20 18 15 12 10 9 9 8 9 9 9 10 11 11 11 12
8 8 8 8 9 9 10 10 10 10 10 10 9 10 10 12 14 14 13 13 12 12 11 11 10 9 8 6 8 8 4 3 5 6 6 5 5 5 7 10 14 17 21 24 23 19 15 10 14 16 14 13 12 11 9 7 9 10 11 12 12 15 18 16 15 17 17 18 20 19 22 25 22 18 15 12 11 10 10 10 11 11 11 11 10 10 10 10
7 7 8 8 8 9 9 9 10 10 10 10 9 9 9 11 14 15 15 14 13 12 12 11 10 10 7 6 8 6 2 2 4 5 5 5 6 5 6 10 15 19 22 24 22 18 14 11 13 15 13 11 11 11 10 8 9 10 11 10 10 12 14 11 9 12 12 12 15 16 20 25 22 17 13 12 11 9 10 10 11 12 12 11 9 9 9 8
8 8 8 8 9 9 9 9 9 10 10 9 8 8 8 9 11 13 15 15 14 13 13 11 10 9 7 7 7 4 2 2 3 4 5 6 7 7 7 11 14 17 20 22 20 17 15 13 12 14 12 9 11 11 9 9 9 10 10 9 8 9 11 8 3 7 8 8 11 13 18 20 16 11 8 9 9 9 10 10 10 11 11 11 9 8 8 6
9 9 10 10 10 10 9 9 9 9 9 9 8 7 7 7 8 10 12 14 15 15 14 12 10 9 7 7 7 5 3 3 3 4 6 7 7 9 9 11 13 16 19 19 19 18 18 15 12 12 12 11 12 12 10 10 10 9 7 7 8 9 13 12 10 12 8 9 11 13 17 19 15 9 6 6 8 9 11 9 9 11 12 12 10 8 7 4
10 10 11 10 10 10 10 10 10 9 8 8 7 7 7 7 7 7 9 12 14 15 15 13 11 9 7 9 9 7 5 5 5 6 8 8 8 10 11 12 13 16 18 18 19 18 16 14 13 12 12 13 14 14 12 9 8 6 4 7 10 12 15 16 17 17 9 12 14 14 17 19 18 15 11 10 12 12 11 10 11 14 15 13 10 8 4 2
11 11 11 11 11 10 10 10 10 9 7 7 7 8 7 6 7 7 9 10 10 12 12 13 13 11 11 12 11 10 9 7 7 9 10 10 10 12 14 15 15 15 15 17 17 15 12 11 13 14 15 15 15 15 13 7 5 5 5 7 10 13 17 17 16 18 9 14 18 18 18 19 18 18 17 14 11 12 12 14 17 18 16 13 11 8 3 1
11 11 11 11 11 10 9 9 9 9 7 8 8 7 5 6 8 9 12 11 9 11 13 14 15 14 15 15 14 13 11 9 8 8 8 10 11 11 14 16 16 15 13 14 14 11 10 9 11 14 14 13 12 12 9 6 6 5 4 7 10 14 19 17 14 16 6 12 17 18 19 20 19 18 17 12 10 14 16 20 22 19 16 14 11 7 3 2
11 11 11 11 10 9 9 8 9 8 6 8 8 5 5 9 11 12 15 12 11 15 15 15 16 16 17 17 17 15 12 11 11 10 8 9 11 12 14 16 16 15 15 15 13 9 9 9 8 10 11 9 8 6 6 6 5 4 5 9 11 14 19 14 11 14 5 6 11 15 15 17 17 16 15 13 14 17 19 21 21 18 16 14 10 7 5 4
12 11 11 11 10 9 8 8 8 7 6 8 7 7 8 11 13 14 16 12 9 14 16 15 16 17 20 18 17 16 14 13 13 12 11 10 11 12 14 16 15 15 15 14 12 8 8 7 9 12 10 8 7 6 6 7 6 5 7 10 11 13 15 12 7 10 5 1 3 8 8 10 13 15 16 15 14 17 18 19 19 17 16 14 12 10 7 5
12 12 11 11 10 9 8 7 7 6 6 7 9 10 10 12 14 14 16 14 7 10 15 14 13 17 22 18 17 16 13 12 12 12 11 10 10 11 14 16 13 14 14 12 10 9 8 9 13 11 8 8 7 7 8 8 7 6 8 12 13 11 10 11 9 6 6 5 3 3 6 9 10 12 16 16 16 17 17 20 20 18 17 14 13 11 7 5
13 13 12 11 10 9 9 7 7 7 7 9 12 12 10 11 13 13 15 18 11 7 11 11 10 17 22 17 16 16 11 11 12 11 10 9 9 10 13 13 12 14 14 10 9 10 9 10 6 3 4 6 7 8 10 9 8 7 11 15 13 8 5 6 9 7 3 5 4 4 7 9 8 6 10 14 17 19 19 21 22 20 18 15 13 11 8 6
14 14 13 12 11 10 9 7 8 9 9 12 13 11 10 10 11 13 14 18 14 7 11 11 8 13 20 20 18 15 12 12 12 11 9 7 7 10 12 12 13 15 14 11 9 11 9 5 4 6 6 8 9 10 12 11 9 10 12 13 10 7 4 3 6 7 3 2 3 2 4 6 8 5 5 8 13 19 21 23 22 21 21 19 16 13 11 10
16 15 14 13 11 10 10 9 9 11 12 14 14 11 9 7 8 11 13 17 13 5 7 9 7 9 19 23 18 15 13 12 12 11 9 7 6 9 10 12 14 14 11 10 9 11 9 3 7 10 11 11 11 12 13 12 11 12 12 11 11 8 5 3 5 4 4 1 3 2 1 4 6 5 3 3 5 13 20 23 24 24 23 22 19 14 13 13
17 17 16 15 13 11 11 11 10 13 15 15 13 11 9 7 7 11 11 12 8 2 3 6 7 7 16 23 19 16 11 7 12 14 11 9 7 8 10 11 12 12 10 9 9 10 8 5 7 11 12 11 11 11 12 12 13 13 12 11 10 7 6 6 5 3 2 3 2 1 2 3 2 2 2 1 1 7 16 22 26 27 24 23 20 16 15 14
17 18 18 17 15 13 12 12 12 14 16 16 13 11 10 8 8 10 8 4 2 0 0 3 7 5 13 22 20 16 9 5 11 13 11 12 11 11 12 11 10 10 10 10 11 10 7 6 7 11 10 10 10 9 11 13 13 14 13 10 6 3 4 5 5 4 3 3 3 3 5 4 4 3 2 2 1 2 8 16 23 26 25 24 21 17 16 15
17 18 18 18 18 16 14 13 14 15 16 16 15 13 11 9 7 8 4 1 2 1 1 2 5 5 9 19 22 19 13 8 7 6 8 13 14 14 14 12 10 12 12 13 14 12 9 9 10 13 10 10 9 8 10 11 12 12 12 11 7 5 5 3 5 6 5 4 3 3 6 4 4 7 7 4 4 2 4 10 17 24 27 25 20 17 17 18
17 18 19 19 19 19 16 14 15 16 16 15 15 15 13 10 7 4 2 2 3 1 1 1 2 4 6 13 20 21 19 15 10 7 7 11 15 17 17 15 13 14 14 15 17 17 15 14 13 12 10 11 10 8 9 9 7 7 9 10 8 7 7 5 6 8 5 2 4 5 6 6 2 6 9 8 7 5 7 10 15 24 29 25 21 19 19 20
18 19 20 19 19 21 18 15 16 17 15 15 15 14 13 10 8 4 1 4 5 2 1 2 2 5 8 9 14 18 19 18 17 15 11 10 14 20 21 18 16 15 15 16 17 18 18 17 14 11 11 14 15 13 10 7 7 6 5 5 6 5 6 5 5 8 4 1 5 7 6 7 4 5 9 11 11 10 10 10 13 21 27 25 22 22 21 21
19 20 21 19 20 21 18 17 19 18 15 15 14 13 13 9 9 11 7 4 3 1 2 4 4 3 6 8 12 15 17 18 17 17 15 12 14 20 22 20 19 16 14 16 17 16 16 17 14 11 12 14 15 14 10 8 9 9 6 5 6 2 2 3 2 3 2 2 7 7 5 5 5 6 10 13 15 14 11 9 11 19 23 22 23 24 23 22
19 21 21 21 20 19 18 19 22 20 17 16 14 13 13 8 7 16 16 8 3 3 1 2 3 2 1 6 11 14 17 19 17 16 16 15 14 17 20 20 20 17 12 12 15 14 12 13 13 11 11 14 15 14 11 9 9 11 11 9 7 3 3 2 2 0 1 3 7 8 4 3 4 3 8 12 15 16 13 9 12 17 18 18 21 24 25 24
18 21 22 22 20 18 17 21 23 22 19 17 16 14 13 10 8 13 14 11 9 6 5 8 9 9 5 5 7 10 14 18 17 16 16 16 15 16 20 22 21 18 14 10 11 11 8 7 11 13 11 11 14 14 12 9 8 11 13 11 9 7 3 3 3 2 3 4 7 7 3 2 5 3 3 3 7 10 11 12 15 16 16 17 19 24 27 27
17 20 22 22 20 18 18 21 24 24 22 19 18 17 17 17 15 13 12 11 10 10 8 7 7 12 14 10 6 7 10 14 16 17 17 17 17 17 19 22 22 20 18 14 11 10 9 6 7 11 10 7 10 15 13 10 9 10 13 12 11 9 6 4 2 3 4 4 3 4 3 5 9 8 7 6 4 3 5 9 15 16 17 19 22 27 30 29
16 19 20 21 20 19 20 22 25 26 25 22 21 22 24 21 15 11 8 6 6 7 7 5 4 6 11 13 10 8 9 11 12 16 19 19 20 20 20 22 22 21 20 17 14 11 9 9 8 9 9 8 10 12 12 10 8 9 12 12 10 10 9 6 3 3 4 3 2 4 5 10 12 9 7 6 4 7 10 8 9 11 15 19 22 27 28 27
15 17 18 20 20 20 21 23 25 27 27 24 24 25 25 23 18 13 9 6 6 7 10 9 4 3 5 10 11 9 10 10 9 12 17 17 16 17 22 23 22 23 22 18 17 14 10 8 9 9 8 9 12 11 11 11 10 10 11 11 9 7 9 8 3 3 3 1 3 3 4 10 10 7 9 10 7 7 9 8 7 9 12 14 15 17 15 14
12 13 16 19 19 19 22 24 25 27 27 26 27 27 25 24 21 18 16 14 13 11 12 10 6 6 5 8 10 9 9 9 9 10 13 15 12 11 15 16 15 21 23 19 18 17 14 9 7 8 7 6 10 11 11 11 10 8 8 10 9 5 8 10 5 2 2 1 2 0 3 6 6 5 11 14 14 13 12 10 9 9 10 10 10 13 14 13
10 10 14 17 16 18 22 24 24 26 27 28 28 27 26 24 21 19 18 17 14 11 10 8 5 6 6 7 10 8 7 7 8 9 11 13 13 12 11 8 7 13 20 20 19 18 16 12 7 7 8 7 8 10 10 7 6 5 7 11 9 5 8 11 7 5 5 3 2 0 2 2 5 6 9 13 16 18 18 16 15 15 15 14 13 14 14 12
8 9 13 13 12 17 21 23 24 25 27 28 28 26 25 22 20 19 16 14 13 11 11 10 7 8 8 6 8 8 10 11 9 7 10 12 14 16 15 11 6 5 9 15 20 19 17 16 11 8 9 9 6 7 7 5 5 5 6 9 9 7 8 9 6 6 6 4 3 2 1 3 6 5 5 8 11 15 17 15 12 11 10 12 13 14 13 11
5 8 11 10 11 15 19 22 23 25 26 27 27 26 23 21 19 17 14 11 12 13 14 13 11 10 10 10 9 9 11 13 9 6 11 14 14 16 17 17 12 6 3 7 15 19 18 18 16 9 8 9 7 6 4 2 3 2 2 5 7 8 9 8 5 6 7 5 5 5 2 5 8 6 4 6 7 11 12 10 10 9 8 12 15 16 13 10
4 7 10 10 11 14 17 20 22 23 24 24 23 21 18 17 18 16 12 10 12 14 14 13 12 11 10 11 10 10 10 15 13 8 11 14 15 15 16 18 19 13 5 4 10 15 16 16 16 10 8 9 7 5 3 1 3 3 2 5 6 6 9 8 5 8 10 6 6 8 4 6 9 7 7 9 9 11 11 8 8 10 12 14 16 14 10 8
4 8 10 10 12 13 15 18 20 20 20 18 16 13 11 12 14 13 10 8 9 11 9 10 9 8 8 7 8 10 12 16 15 10 10 14 15 14 14 15 21 22 12 3 4 11 13 13 13 9 8 9 8 5 4 4 5 4 3 6 7 5 7 6 6 12 13 9 9 7 2 5 10 8 8 10 10 11 11 9 8 9 11 13 14 13 12 11
5 9 10 12 16 17 16 18 20 20 18 14 11 9 8 9 9 8 7 5 7 7 6 8 10 9 9 7 8 12 12 12 13 11 10 13 14 14 14 10 13 21 18 7 4 8 10 10 11 8 8 9 7 4 5 6 6 5 6 6 6 5 6 5 7 12 12 10 12 8 3 7 10 9 9 10 10 11 11 9 8 8 8 9 10 11 11 11
5 10 12 12 19 23 19 16 17 18 16 11 8 7 6 5 6 6 6 7 7 7 7 9 10 9 8 6 5 10 13 10 12 13 11 11 12 15 17 14 11 15 16 9 5 8 8 8 10 7 4 6 5 4 8 9 6 5 4 2 3 6 6 6 7 8 7 9 12 10 9 12 12 12 12 11 10 9 9 9 9 9 8 9 9 10 10 10
4 9 13 10 12 18 18 15 12 10 10 8 6 7 6 6 7 7 9 11 10 9 8 8 9 9 9 8 5 6 10 10 11 15 15 13 11 12 16 17 16 16 16 14 10 8 6 6 8 7 3 6 7 7 11 12 7 3 2 3 2 1 3 4 5 4 6 9 9 11 16 18 15 14 14 13 11 9 9 9 10 10 11 11 12 12 12 11
5 5 8 7 1 9 12 14 14 11 10 11 11 9 8 9 11 11 11 11 9 10 9 7 8 8 8 9 8 4 6 7 11 15 18 16 14 12 12 14 15 15 17 18 16 12 7 5 6 5 3 6 7 6 7 7 6 5 5 6 5 4 2 1 2 4 7 9 9 15 21 21 18 15 13 13 12 11 10 10 10 11 12 13 14 14 14 14
6 3 3 5 4 8 11 11 13 13 12 13 12 10 9 11 12 12 10 8 7 9 9 7 7 7 6 8 9 7 7 8 11 15 17 17 16 14 14 14 14 15 15 15 15 16 14 9 6 6 5 6 7 6 3 3 3 3 4 6 6 6 6 3 3 5 5 5 11 20 23 21 20 17 14 14 14 12 11 12 12 12 13 14 14 14 14 14
6 4 5 4 5 4 8 13 15 13 14 14 13 10 9 9 10 9 7 5 5 7 7 7 6 5 6 7 7 8 9 10 13 15 17 18 18 17 17 14 13 14 13 11 10 11 11 10 8 7 7 7 7 6 7 9 8 4 2 3 4 6 6 4 5 7 5 5 14 22 20 19 19 17 15 15 14 14 14 14 15 15 14 15 15 15 15 14
10 10 9 7 6 4 3 5 8 10 13 15 14 12 10 8 6 5 4 4 4 5 5 4 4 4 5 6 6 7 8 11 14 16 16 17 17 17 16 12 11 12 11 10 9 9 9 9 9 8 8 8 7 8 8 10 10 7 4 3 3 4 5 5 6 8 8 9 16 18 16 16 17 15 15 16 15 16 16 16 17 17 16 16 16 15 15 15
11 13 12 8 6 5 1 1 1 5 10 14 15 13 11 11 9 6 6 6 5 5 4 3 4 3 3 4 5 7 9 12 15 17 15 13 13 13 11 9 9 10 10 9 8 8 9 9 10 10 10 10 9 8 8 8 7 5 4 4 5 5 6 7 7 8 9 12 16 17 16 16 16 16 16 16 16 16 16 18 19 19 19 18 17 16 16 16
10 10 10 10 9 8 5 4 5 3 4 10 15 15 12 10 9 5 5 6 5 4 4 4 4 4 3 3 2 4 7 11 14 16 15 12 11 10 8 6 7 8 8 8 8 9 10 9 11 12 10 11 11 9 8 7 4 3 5 6 7 8 8 9 9 9 12 15 17 17 17 17 18 18 16 15 16 16 16 18 19 20 20 20 20 19 18 18
Wind_Direction
289 286 284 281 279 278 276 274 272 270 268 266 265 264 264 264 264 264 265 265 265 265 266 267 270 273 275 275 276 277 277 276 274 270 267 263 259 255 248 244 239 229 223 218 209 209 211 207 207 208 208 209 210 212 210 210 211 211 214 218 225 223 217 220 223 224 200 173 103 106 92 56 65 92 128 165 212 240 263 253 237 273 301 299 286 290 292 284
289 287 285 282 281 279 277 274 271 269 266 265 263 262 263 262 263 263 264 264 264 264 264 266 268 271 273 275 277 278 279 279 276 273 267 262 260 257 250 247 242 230 224 219 210 207 209 208 206 205 205 206 208 209 208 208 211 214 217 223 230 229 226 225 226 225 204 173 119 119 63 25 17 10 155 202 233 244 255 264 266 286 303 302 290 290 283 266
294 291 289 286 283 281 278 275 272 269 266 264 262 262 261 260 261 261 262 262 262 262 262 264 266 270 272 275 277 278 280 277 275 272 267 263 260 256 250 246 239 228 222 219 213 208 208 210 206 203 204 203 204 206 207 208 212 215 220 228 234 236 236 234 239 244 231 215 178 171 315 352 343 314 276 237 230 240 253 281 299 304 312 306 293 287 271 258
300 299 297 293 290 286 281 277 273 270 267 264 262 261 259 259 259 259 260 260 260 260 260 262 265 268 271 274 277 279 278 274 272 268 266 265 261 258 251 243 235 224 219 216 214 210 209 210 206 203 204 202 202 203 206 208 212 217 221 229 235 240 239 231 241 249 233 229 233 265 260 287 323 297 276 250 239 252 263 287 296 302 312 303 293 281 266 268
304 305 306 304 302 296 288 281 276 272 268 265 263 260 258 257 257 257 258 256 257 257 259 261 263 267 271 274 277 277 274 270 263 258 258 265 264 261 253 242 234 224 216 213 212 212 211 210 206 204 203 202 202 204 207 209 213 220 224 230 231 230 230 214 211 216 200 224 239 275 280 283 295 277 277 274 269 275 277 287 288 294 302 293 283 275 275 279
305 306 307 309 309 306 299 290 282 275 270 266 263 261 258 257 256 256 255 255 255 256 258 260 263 267 271 274 274 270 263 255 252 251 250 257 265 269 259 241 231 223 213 210 211 213 211 208 206 204 203 202 205 207 207 206 213 221 223 230 228 225 229 210 194 198 201 237 243 270 283 286 286 276 276 274 275 279 280 281 278 283 287 278 273 275 277 276
304 305 306 308 309 310 308 301 292 282 274 268 264 262 260 257 255 254 254 255 255 256 258 260 264 267 270 272 267 262 255 249 249 250 248 254 263 267 262 247 233 224 213 208 211 214 211 207 205 205 203 202 207 208 203 200 208 218 221 227 227 226 235 228 215 213 225 243 249 267 266 269 281 280 273 270 272 273 275 276 272 274 273 270 271 273 277 283
302 303 303 304 305 307 309 307 301 292 282 274 268 263 260 258 256 255 254 253 253 256 258 260 264 265 268 268 262 260 255 248 246 248 251 254 259 259 257 252 237 221 210 206 209 211 209 204 203 202 200 201 208 206 200 202 210 218 217 216 220 225 235 243 244 236 238 248 257 267 262 263 277 280 275 277 279 275 275 273 268 268 267 268 274 284 294 287
301 301 301 301 302 303 305 306 305 299 290 281 274 268 262 259 257 256 254 254 254 255 258 260 263 263 264 264 262 261 251 243 245 251 251 251 255 256 253 246 231 214 204 202 202 201 201 198 197 200 198 199 205 199 197 207 216 221 217 216 227 234 237 245 249 241 238 246 255 263 263 262 264 268 273 278 282 279 273 263 256 258 265 275 289 294 279 257
300 299 298 297 298 299 301 302 304 301 295 286 278 272 265 260 257 254 254 255 256 257 258 260 261 262 263 262 262 256 244 240 246 255 252 254 255 252 244 233 222 208 199 199 193 186 185 185 191 203 202 199 199 196 201 215 221 221 223 233 244 248 246 250 256 249 241 243 247 258 265 262 255 258 265 270 278 275 258 247 246 248 259 280 287 273 248 242
299 297 296 295 295 295 297 299 301 301 297 289 280 273 267 261 256 253 253 254 255 257 258 260 260 262 262 263 262 251 242 236 237 251 252 244 236 229 223 215 207 197 193 187 170 162 167 177 192 201 199 200 200 202 211 223 225 225 234 248 253 253 252 254 261 255 245 245 244 254 263 257 250 254 258 262 270 262 241 242 247 245 250 266 267 262 261 263
300 298 296 295 294 293 294 296 298 299 297 292 283 275 266 260 256 252 252 253 255 256 257 260 261 263 263 266 262 247 243 236 228 246 245 222 211 209 200 197 188 182 180 166 156 158 167 182 195 191 195 205 204 208 215 225 232 232 248 259 255 255 258 256 256 254 251 248 243 253 259 248 243 252 255 255 255 241 238 250 248 246 246 252 259 261 271 271
304 304 302 300 297 294 293 293 295 296 296 294 287 277 267 259 256 252 251 253 254 255 255 258 259 260 261 263 254 245 245 230 216 234 235 210 204 192 183 188 177 169 163 157 160 168 173 186 196 192 202 206 201 203 197 211 232 232 247 260 261 263 260 250 246 249 251 250 247 254 257 246 240 247 250 245 244 239 248 257 247 247 248 248 255 258 270 270
309 312 312 309 305 300 295 291 291 293 293 292 287 281 270 258 254 252 252 252 253 253 253 255 254 254 254 248 247 247 245 186 195 227 229 205 200 174 171 184 171 165 165 164 169 174 177 193 197 198 208 207 204 207 202 212 228 232 244 254 263 267 261 252 250 251 250 252 252 252 252 248 245 248 248 247 250 246 251 258 254 255 256 251 253 261 275 277
309 313 316 316 314 310 303 296 290 286 286 287 285 280 270 259 253 249 249 250 250 250 248 249 249 250 243 229 240 250 246 170 186 218 218 196 186 155 161 182 174 172 173 171 175 176 181 200 203 205 214 214 215 217 220 225 223 235 245 247 256 265 272 269 252 256 256 256 253 242 242 247 249 255 252 247 248 242 245 254 258 257 254 250 256 269 275 275
301 307 311 312 314 314 311 305 295 284 279 279 279 274 266 259 253 248 247 247 248 248 245 243 242 244 234 216 222 226 210 199 196 206 202 194 176 148 159 182 181 181 177 175 179 181 190 202 207 216 222 223 225 222 226 232 226 235 247 252 258 274 299 302 274 288 286 275 261 235 234 242 247 259 248 234 237 232 237 246 249 245 239 245 256 266 263 273
296 301 303 304 307 309 311 311 305 291 277 271 269 261 252 249 248 244 240 240 242 242 240 236 231 231 220 194 189 193 207 200 189 191 184 183 163 142 155 173 180 184 179 178 186 193 202 209 219 229 227 226 227 224 229 241 233 230 245 258 268 295 313 311 321 329 302 263 259 235 230 236 237 248 242 241 252 237 232 234 232 226 227 239 246 250 256 280
295 298 299 300 300 302 306 308 309 301 278 261 251 240 239 247 252 247 242 240 240 239 236 231 226 220 200 182 175 178 191 182 175 183 174 166 152 139 146 165 184 191 186 191 198 202 209 220 232 235 230 226 221 217 221 228 226 233 266 272 283 308 314 313 323 328 291 237 241 228 225 234 237 245 252 267 268 246 230 217 210 218 228 235 235 240 254 302
293 297 298 297 296 297 299 301 305 303 277 248 235 235 246 260 262 261 260 256 253 247 238 228 221 205 184 176 173 169 165 152 158 175 172 162 159 154 153 163 177 183 189 199 201 201 209 222 230 227 222 217 211 212 214 217 245 268 284 286 303 317 314 312 323 328 293 226 229 223 220 232 238 245 254 262 252 226 210 203 207 220 232 230 227 238 246 315
291 295 297 296 295 292 293 296 298 300 276 237 227 233 257 266 260 264 265 262 269 263 242 232 222 201 183 173 168 160 145 134 139 157 171 172 173 174 170 165 164 166 170 181 187 192 206 224 231 218 204 195 197 207 217 235 261 271 287 302 317 319 311 309 325 337 312 211 222 220 219 231 237 245 248 234 201 192 193 198 210 222 227 222 223 233 212 155
289 293 295 295 294 288 287 289 290 297 273 237 226 226 255 265 264 272 274 267 264 264 252 237 227 204 185 177 174 167 158 154 142 141 167 184 185 186 181 172 167 165 158 166 182 189 211 234 218 185 171 169 184 201 218 234 245 264 297 312 317 314 308 306 334 351 345 205 219 218 223 231 235 242 233 204 183 188 193 198 210 219 219 218 220 214 189 177
288 289 291 293 291 285 281 278 281 287 264 241 227 228 250 269 277 285 291 285 248 252 256 243 231 206 187 184 185 183 179 172 154 152 173 191 194 190 184 180 172 164 161 170 185 197 219 211 161 156 165 174 181 189 209 227 242 271 292 305 314 315 311 302 332 12 33 139 221 218 223 227 230 233 224 213 203 200 200 203 211 218 218 216 210 202 200 208
286 286 287 288 286 283 277 269 268 265 249 235 228 238 254 270 281 291 304 305 264 241 256 249 235 206 190 191 198 199 195 184 172 164 174 192 200 197 189 185 176 168 176 183 185 205 203 153 144 159 181 191 193 196 206 222 237 263 284 295 309 316 314 299 301 358 54 75 72 148 175 197 215 220 214 214 217 215 211 210 215 223 226 218 205 205 219 234
280 281 283 283 282 280 273 263 253 246 227 220 229 244 257 265 281 298 307 305 293 255 256 253 236 209 195 197 208 207 207 203 190 172 172 189 200 201 192 186 184 182 189 195 203 214 175 128 130 184 202 218 222 214 212 225 242 260 273 287 307 307 292 298 293 298 25 56 56 117 151 176 182 186 192 196 208 217 216 213 215 220 222 212 201 201 208 221
276 275 276 277 277 273 268 257 240 235 220 223 236 246 257 273 298 310 310 305 302 274 252 249 237 209 194 202 213 205 208 212 193 178 179 176 189 206 196 190 195 188 189 200 221 225 187 135 311 288 276 265 258 236 218 224 248 263 269 280 303 299 264 309 309 279 262 36 56 124 148 154 148 145 169 186 206 212 212 211 211 212 211 204 201 200 197 199
272 270 270 271 271 267 263 252 235 231 227 236 248 249 261 293 319 320 314 306 302 272 241 239 227 208 195 203 209 196 210 215 180 176 182 165 189 216 201 196 199 191 193 209 230 241 230 254 301 294 286 269 261 249 224 216 235 253 266 280 297 292 258 284 323 287 247 168 81 97 175 158 136 124 138 159 205 213 211 211 210 208 205 200 200 202 199 196
268 266 265 264 264 261 256 251 237 229 231 242 251 250 263 293 318 323 321 309 297 251 240 223 203 209 198 202 204 189 203 212 178 184 186 177 197 210 203 207 207 200 204 223 240 247 251 269 294 301 288 255 246 243 220 207 221 244 265 284 298 292 264 275 294 288 236 191 158 170 232 247 194 108 62 55 128 213 214 211 209 206 201 199 201 203 202 198
266 263 261 258 258 256 250 248 240 230 235 243 249 251 262 277 305 320 324 324 317 98 33 187 184 199 194 198 203 196 200 200 186 194 192 194 210 212 213 217 218 220 219 229 239 241 253 265 294 319 296 244 233 233 217 210 225 247 265 278 289 288 274 273 264 255 205 195 228 219 220 258 264 248 315 349 360 248 227 220 214 206 199 199 202 203 203 199
266 261 258 255 253 252 247 244 240 236 239 242 247 255 262 273 299 314 313 319 308 222 122 146 177 192 194 198 205 212 218 201 182 193 195 203 215 220 227 227 229 239 235 235 243 247 258 265 290 318 297 238 217 218 215 219 241 251 252 259 265 265 264 253 239 220 171 183 231 201 201 221 280 261 261 287 289 280 243 234 222 211 204 202 203 203 202 199
266 261 257 252 250 249 245 241 240 240 241 240 244 252 258 268 276 288 282 239 274 279 240 294 187 195 199 198 206 217 222 214 213 236 229 216 216 219 230 236 236 244 242 243 252 258 262 267 279 295 277 235 219 223 218 218 241 247 246 251 255 256 244 223 209 187 153 190 200 162 185 196 257 265 252 264 271 257 250 246 230 216 208 204 204 201 199 197
265 261 257 251 247 246 242 238 240 239 239 237 239 243 246 254 252 233 216 246 262 311 359 68 109 205 216 208 210 215 218 218 225 236 238 230 220 220 227 232 230 234 242 247 252 257 259 264 272 273 251 230 227 230 223 219 225 228 251 238 213 216 207 191 177 170 157 264 181 152 152 182 199 244 245 255 261 259 261 260 240 219 209 205 205 203 200 198
265 260 257 251 245 245 239 234 238 237 233 231 230 233 232 233 232 220 219 251 275 261 142 96 87 187 226 232 225 218 218 222 224 228 237 240 228 220 220 226 224 224 236 244 246 253 255 256 262 259 237 224 228 228 222 233 229 220 234 218 197 168 147 198 190 164 192 187 170 158 141 180 214 241 251 259 262 258 261 261 230 210 206 206 204 204 206 204
267 259 256 252 245 242 235 231 237 236 230 226 223 224 218 206 224 230 231 240 232 183 175 312 294 199 237 263 236 223 225 228 225 226 234 241 239 225 219 223 225 225 231 237 237 243 249 247 245 243 232 221 223 223 221 232 227 218 227 223 205 151 85 242 251 283 255 185 165 163 158 202 205 241 272 266 261 257 257 248 208 189 195 203 200 202 207 205
269 261 255 252 247 239 230 228 233 233 229 222 215 211 203 199 223 236 236 240 238 241 286 299 271 229 242 288 246 226 231 229 225 225 227 231 234 231 224 221 220 224 232 234 227 222 220 225 228 232 236 226 223 227 232 239 233 227 228 223 215 201 176 216 223 197 192 167 154 158 168 202 155 107 2 280 258 254 243 231 208 193 198 202 193 192 196 197
271 263 256 251 246 237 227 225 228 230 228 220 212 207 206 212 226 238 247 254 254 260 276 288 268 243 248 262 248 230 236 232 227 226 226 227 230 231 227 222 219 223 230 230 221 210 204 210 220 226 228 222 226 229 228 231 232 223 216 214 220 222 213 202 195 185 165 132 135 164 149 130 136 119 96 101 103 134 180 209 208 205 206 198 186 185 188 191
271 264 260 254 245 235 226 222 224 227 227 220 213 213 217 222 227 234 247 255 243 258 280 271 245 253 252 243 239 242 240 232 227 229 226 223 228 231 228 226 225 227 229 225 215 201 202 216 218 219 217 214 223 219 209 217 223 209 205 209 214 220 219 199 146 130 127 109 176 187 144 138 143 148 156 154 128 112 115 131 156 175 184 181 179 184 187 187
274 264 262 256 244 231 223 221 221 224 224 221 219 221 226 229 228 231 238 242 238 270 300 292 268 309 276 233 236 260 255 229 214 228 225 214 218 226 225 227 230 231 231 228 219 203 198 215 215 213 212 208 213 209 201 207 206 200 206 205 198 201 206 192 141 77 84 107 217 196 147 154 155 167 193 205 211 175 147 137 137 151 164 169 180 195 209 210
278 261 257 254 244 228 220 219 220 221 221 221 223 227 231 230 229 236 244 253 261 271 284 282 287 317 289 230 234 263 264 231 205 222 222 207 206 212 218 223 230 234 234 231 224 211 205 215 211 206 204 191 202 208 202 196 197 210 207 192 188 185 183 177 156 125 143 163 241 237 102 156 171 185 202 213 219 211 203 206 219 223 213 217 225 231 250 254
286 258 250 250 241 222 217 218 218 219 219 220 224 228 232 233 231 236 244 256 269 274 263 255 278 305 287 239 231 248 260 228 211 230 229 214 212 207 206 213 222 234 234 230 225 214 210 219 214 194 194 190 192 194 189 178 181 193 183 185 202 205 181 178 171 169 168 160 207 209 55 158 184 192 207 220 223 219 220 227 240 251 245 239 237 232 231 224
287 250 240 238 226 213 213 215 215 216 218 221 226 229 232 236 234 236 245 255 263 263 249 242 259 281 288 268 233 241 257 235 214 240 240 224 222 220 220 225 213 216 227 222 220 215 209 213 209 185 187 195 180 162 167 174 173 165 165 186 202 194 175 172 176 178 164 156 166 147 352 207 177 172 203 216 220 220 223 227 234 246 240 223 213 205 200 198
279 242 234 219 208 207 209 211 213 216 219 222 227 231 235 239 238 236 240 246 250 249 243 245 254 258 273 280 249 236 241 221 206 254 243 220 217 217 222 229 217 194 180 198 208 206 202 206 206 187 171 174 158 141 150 174 205 192 148 165 178 183 179 166 170 183 167 166 169 150 188 205 170 153 162 164 178 198 208 215 219 221 210 199 193 186 186 194
267 235 232 211 202 206 207 211 213 214 219 223 227 234 238 241 245 242 234 233 238 237 238 246 252 250 258 266 246 221 202 191 198 247 245 222 218 214 218 225 220 213 207 193 202 199 197 207 205 182 153 154 144 136 143 147 257 250 169 169 175 184 190 181 181 182 165 156 155 138 146 188 167 159 163 155 156 169 177 187 196 194 188 188 192 194 204 210
246 226 227 203 199 202 200 208 214 212 217 223 224 227 229 235 243 238 225 226 226 224 233 235 226 227 231 224 209 196 176 174 192 230 242 225 221 215 214 221 221 217 207 190 219 203 198 205 197 162 131 143 144 136 148 176 225 224 153 168 180 178 195 202 196 182 169 159 155 130 112 190 170 165 176 171 165 164 167 174 180 184 187 192 203 217 237 247
244 218 220 198 189 190 189 201 212 210 206 208 205 206 219 228 227 215 211 232 232 225 238 220 198 201 213 204 193 191 178 171 189 209 224 215 202 193 190 194 215 216 208 205 247 216 205 205 195 165 122 134 148 156 169 172 178 156 122 138 158 161 179 190 181 177 171 175 176 157 152 186 171 167 178 179 179 176 177 188 200 211 213 215 223 231 240 245
259 217 223 203 182 185 192 204 213 206 197 202 214 219 227 225 219 219 218 226 233 233 236 220 196 191 198 194 188 192 188 186 188 189 200 210 202 196 196 193 201 210 212 221 228 211 212 207 198 193 152 148 162 185 197 193 168 127 110 125 147 145 150 153 164 175 173 181 186 172 163 167 164 166 170 170 180 189 191 196 204 214 219 223 231 234 233 236
292 226 235 231 183 173 178 185 184 174 177 191 199 200 201 189 190 201 204 210 223 229 231 218 194 188 195 193 190 181 179 184 186 183 186 191 192 199 208 212 215 215 219 224 209 187 190 188 194 213 201 162 162 171 190 199 195 177 244 289 292 122 120 130 150 169 157 153 162 171 174 171 165 165 164 162 172 189 200 205 208 212 213 212 218 224 228 235
316 241 248 275 13 109 134 168 165 139 150 177 175 170 176 176 175 178 185 198 212 217 221 215 194 194 197 197 205 188 147 162 178 177 175 175 178 185 193 202 210 212 219 226 222 212 210 191 188 212 199 156 160 167 184 200 203 211 249 277 292 306 312 154 151 159 156 150 147 159 171 174 169 167 167 167 174 186 196 204 211 216 217 218 222 226 232 237
324 304 315 313 352 74 102 133 133 129 147 161 156 156 167 174 178 180 185 195 202 207 219 224 209 203 187 184 203 194 149 151 165 161 158 162 170 176 177 185 195 195 198 213 221 225 233 236 227 223 211 179 173 176 202 237 221 206 243 262 274 285 286 274 220 181 179 192 169 162 168 175 173 174 176 177 183 192 196 201 208 216 225 231 237 241 244 247
9 18 34 25 11 53 108 111 111 129 147 145 139 140 152 168 177 175 173 186 196 194 206 215 203 193 181 176 192 186 165 162 162 156 153 155 161 168 171 176 187 187 187 193 200 212 224 224 221 220 206 193 205 229 250 255 247 232 244 259 264 269 263 247 210 189 193 204 177 170 174 178 176 180 186 185 189 195 197 201 207 215 222 227 234 241 245 250
40 41 51 61 52 53 119 123 111 120 126 128 126 112 104 122 147 161 155 158 178 178 186 201 183 174 187 190 195 195 184 176 168 164 162 161 164 171 172 171 178 184 192 198 197 201 204 200 205 214 207 200 218 234 231 234 236 231 231 245 252 251 236 216 194 180 179 184 181 183 191 189 183 189 195 196 198 198 199 203 206 211 218 221 228 235 239 244
51 47 44 45 53 64 69 291 66 96 106 109 106 95 92 98 97 104 121 117 128 151 153 164 167 170 197 202 203 205 195 184 179 178 178 174 171 175 177 177 180 185 193 203 209 214 212 203 199 200 197 193 196 203 208 218 228 220 207 214 221 224 214 196 182 174 177 183 187 193 199 197 195 198 201 206 208 206 206 207 207 211 217 220 224 228 235 242
47 48 42 29 28 45 45 12 5 16 85 93 88 84 87 94 99 113 120 110 119 150 156 157 163 183 215 210 197 205 192 184 184 186 188 192 196 197 199 206 210 212 212 211 219 227 224 215 205 202 198 193 194 200 204 208 220 213 199 208 221 226 219 198 182 174 173 175 181 191 194 194 198 201 202 207 211 211 213 214 214 218 220 222 222 223 227 233
Height
3098 3098 3097 3097 3096 3096 3096 3095 3095 3095 3095 3094 3094 3094 3094 3094 3094 3094 3094 3094 3094 3094 3093 3093 3093 3093 3092 3092 3091 3091 3091 3091 3091 3090 3090 3090 3090 3090 3091 3091 3091 3092 3093 3094 3096 3097 3099 3099 3100 3101 3103 3104 3105 3106 3108 3108 3109 3109 3111 3111 3111 3111 3112 3112 3113 3114 3116 3117 3117 3117 3117 3118 3119 3119 3119 3119 3119 3119 3118 3119 3119 3120 3121 3121 3121 3121 3121 3121
3097 3096 3096 3095 3095 3094 3094 3093 3093 3093 3093 3093 3093 3092 3092 3092 3093 3093 3093 3092 3092 3092 3092 3091 3091 3091 3091 3090 3090 3090 3089 3089 3089 3089 3089 3088 3088 3088 3089 3089 3090 3091 3091 3092 3094 3095 3096 3097 3097 3099 3101 3102 3104 3105 3106 3107 3107 3108 3109 3109 3109 3110 3112 3112 3113 3114 3116 3117 3116 3116 3116 3118 3119 3119 3119 3119 3119 3119 3119 3119 3120 3120 3121 3121 3121 3121 3121 3121
3096 3095 3094 3094 3093 3093 3092 3092 3091 3091 3091 3091 3091 3091 3091 3091 3091 3091 3091 3091 3091 3090 3090 3090 3090 3090 3089 3089 3089 3089 3088 3088 3087 3087 3087 3087 3087 3087 3087 3087 3088 3089 3089 3090 3092 3093 3094 3094 3096 3098 3099 3101 3102 3103 3104 3105 3106 3107 3108 3107 3108 3110 3112 3112 3113 3114 3115 3116 3115 3115 3115 3116 3118 3118 3118 3118 3118 3118 3118 3119 3119 3120 3120 3120 3120 3120 3120 3120
3095 3094 3093 3092 3092 3091 3091 3090 3090 3090 3089 3089 3089 3089 3089 3089 3089 3089 3089 3089 3089 3089 3089 3089 3088 3088 3088 3088 3088 3087 3087 3086 3086 3086 3085 3086 3086 3085 3085 3086 3087 3087 3088 3089 3090 3091 3092 3093 3094 3096 3098 3100 3101 3101 3102 3104 3105 3105 3106 3106 3108 3110 3111 3111 3112 3113 3114 3115 3115 3114 3114 3114 3115 3117 3117 3117 3117 3117 3118 3119 3119 3119 3120 3119 3119 3119 3119 3119
3094 3093 3092 3091 3091 3090 3089 3089 3088 3088 3088 3088 3087 3087 3087 3087 3087 3087 3087 3087 3087 3087 3087 3087 3087 3087 3087 3086 3086 3086 3086 3085 3085 3084 3084 3085 3085 3085 3085 3085 3085 3086 3087 3088 3088 3089 3090 3092 3093 3095 3097 3099 3100 3100 3101 3102 3103 3104 3104 3105 3108 3109 3109 3109 3110 3111 3112 3113 3114 3114 3114 3114 3114 3116 3116 3116 3116 3117 3117 3118 3118 3119 3119 3119 3118 3118 3118 3118
3093 3092 3091 3090 3090 3089 3088 3087 3087 3086 3086 3086 3086 3086 3086 3086 3086 3086 3086 3086 3086 3085 3086 3086 3086 3085 3085 3085 3085 3085 3085 3084 3084 3084 3084 3084 3084 3084 3084 3084 3084 3085 3086 3087 3087 3088 3089 3091 3093 3094 3096 3098 3098 3099 3101 3102 3102 3102 3103 3104 3106 3108 3108 3108 3109 3110 3111 3112 3113 3114 3113 3114 3114 3115 3115 3115 3116 3116 3117 3117 3117 3118 3118 3118 3118 3117 3117 3116
3092 3091 3090 3090 3089 3088 3087 3086 3086 3085 3085 3085 3084 3084 3084 3084 3084 3084 3084 3084 3084 3084 3084 3084 3084 3084 3084 3084 3084 3084 3083 3084 3083 3083 3083 3083 3083 3083 3083 3083 3083 3084 3085 3086 3087 3087 3089 3090 3092 3094 3095 3097 3098 3099 3101 3102 3101 3102 3102 3104 3106 3107 3107 3108 3108 3109 3109 3110 3112 3112 3112 3113 3114 3114 3114 3114 3115 3115 3115 3116 3116 3116 3116 3116 3117 3117 3116 3116
3091 3090 3089 3089 3088 3087 3086 3085 3085 3084 3084 3083 3083 3083 3083 3083 3083 3083 3083 3083 3083 3083 3083 3083 3083 3083 3083 3083 3082 3082 3082 3083 3082 3082 3082 3082 3082 3082 3082 3083 3083 3083 3084 3085 3086 3087 3089 3090 3092 3094 3095 3097 3098 3099 3101 3101 3101 3101 3102 3104 3105 3106 3106 3106 3107 3107 3108 3108 3110 3111 3111 3112 3112 3112 3111 3112 3113 3114 3114 3114 3114 3114 3115 3115 3116 3116 3116 3115
3090 3089 3088 3088 3087 3086 3085 3084 3084 3083 3082 3082 3082 3082 3081 3081 3081 3081 3081 3081 3081 3081 3081 3082 3082 3082 3082 3081 3081 3081 3081 3081 3081 3081 3081 3081 3081 3081 3081 3082 3082 3082 3083 3084 3085 3087 3089 3091 3093 3094 3095 3096 3097 3099 3099 3099 3100 3100 3101 3103 3103 3103 3103 3104 3104 3105 3106 3106 3108 3109 3109 3111 3111 3110 3109 3110 3112 3112 3113 3113 3113 3113 3114 3114 3115 3115 3115 3114
3089 3088 3087 3087 3086 3085 3084 3083 3083 3082 3081 3081 3080 3080 3080 3080 3080 3080 3080 3080 3080 3080 3080 3080 3080 3080 3080 3080 3080 3080 3080 3080 3080 3080 3080 3080 3080 3080 3081 3081 3081 3082 3083 3084 3085 3087 3089 3091 3092 3093 3094 3095 3096 3097 3097 3098 3098 3099 3100 3100 3100 3101 3102 3102 3102 3103 3104 3104 3106 3107 3108 3109 3109 3108 3108 3109 3111 3111 3111 3112 3112 3112 3113 3113 3114 3113 3113 3114
3088 3087 3086 3085 3085 3084 3083 3082 3082 3081 3080 3080 3079 3079 3079 3079 3079 3079 3079 3079 3079 3079 3079 3079 3079 3079 3079 3079 3079 3079 3079 3079 3079 3079 3079 3079 3079 3080 3080 3080 3081 3082 3083 3084 3086 3088 3089 3090 3090 3091 3093 3094 3095 3096 3096 3097 3098 3098 3099 3099 3099 3100 3100 3101 3101 3102 3102 3103 3104 3105 3106 3107 3107 3106 3106 3108 3109 3110 3110 3111 3111 3112 3112 3112 3112 3112 3112 3114
3087 3086 3085 3084 3084 3083 3082 3082 3081 3080 3079 3078 3078 3078 3078 3078 3078 3078 3077 3077 3077 3077 3078 3078 3078 3078 3078 3078 3078 3078 3078 3078 3079 3079 3078 3079 3079 3079 3079 3080 3080 3081 3083 3085 3086 3087 3088 3089 3089 3091 3092 3092 3093 3095 3095 3096 3097 3098 3098 3098 3098 3099 3099 3099 3101 3101 3101 3102 3103 3104 3104 3103 3104 3104 3105 3107 3108 3109 3109 3110 3110 3111 3111 3111 3111 3111 3112 3114
3086 3085 3084 3084 3083 3082 3081 3081 3080 3079 3078 3077 3077 3076 3076 3076 3076 3076 3076 3076 3076 3076 3076 3077 3077 3077 3077 3077 3077 3077 3077 3078 3078 3078 3078 3078 3078 3078 3078 3079 3080 3081 3082 3084 3085 3086 3087 3088 3089 3090 3091 3091 3092 3094 3094 3095 3096 3097 3097 3097 3098 3098 3097 3098 3100 3100 3100 3101 3102 3103 3101 3100 3102 3103 3103 3105 3106 3107 3107 3108 3109 3109 3110 3110 3110 3111 3112 3113
3085 3084 3084 3083 3082 3081 3080 3080 3079 3078 3077 3076 3075 3075 3075 3074 3075 3075 3075 3075 3075 3075 3075 3075 3076 3076 3076 3076 3076 3076 3077 3077 3077 3077 3077 3077 3077 3077 3078 3079 3079 3080 3082 3083 3084 3086 3087 3088 3088 3090 3090 3091 3092 3093 3093 3094 3095 3096 3097 3097 3097 3096 3096 3097 3098 3098 3099 3099 3099 3101 3098 3096 3099 3101 3102 3104 3104 3106 3106 3107 3108 3108 3109 3110 3110 3111 3112 3113
3085 3084 3083 3082 3081 3080 3080 3079 3078 3077 3076 3075 3075 3074 3073 3073 3073 3073 3073 3073 3073 3074 3074 3074 3075 3075 3075 3075 3075 3075 3076 3077 3076 3076 3077 3077 3077 3077 3078 3079 3079 3080 3081 3083 3085 3086 3087 3087 3088 3089 3090 3090 3091 3092 3093 3094 3095 3095 3096 3096 3096 3096 3095 3095 3096 3097 3097 3097 3097 3097 3096 3094 3097 3099 3100 3102 3103 3104 3105 3105 3107 3108 3109 3109 3110 3111 3112 3113
3084 3083 3082 3082 3081 3080 3079 3078 3077 3076 3075 3074 3074 3073 3072 3072 3071 3071 3071 3072 3072 3072 3072 3073 3073 3074 3074 3074 3074 3074 3075 3076 3076 3076 3076 3076 3076 3076 3078 3079 3079 3081 3082 3083 3085 3086 3086 3086 3088 3089 3089 3090 3091 3092 3092 3093 3094 3095 3095 3095 3095 3095 3094 3093 3094 3095 3095 3094 3094 3094 3094 3094 3096 3097 3098 3100 3101 3103 3104 3104 3105 3107 3108 3109 3109 3110 3111 3112
3083 3082 3082 3081 3080 3079 3078 3077 3076 3075 3074 3073 3073 3072 3071 3071 3070 3070 3070 3070 3070 3070 3071 3071 3072 3072 3073 3073 3073 3074 3074 3075 3075 3076 3075 3076 3076 3076 3077 3079 3080 3081 3082 3084 3084 3085 3086 3086 3087 3088 3089 3090 3090 3091 3092 3093 3093 3094 3094 3094 3094 3094 3093 3092 3091 3091 3091 3091 3091 3092 3092 3093 3095 3096 3097 3099 3100 3101 3102 3104 3105 3107 3108 3108 3109 3109 3110 3112
3082 3081 3081 3080 3079 3078 3077 3076 3075 3074 3073 3072 3072 3071 3070 3070 3069 3069 3069 3068 3068 3069 3069 3070 3071 3071 3071 3071 3072 3072 3073 3073 3074 3075 3075 3075 3075 3076 3077 3079 3080 3081 3082 3083 3084 3085 3086 3086 3087 3087 3088 3089 3089 3090 3091 3092 3092 3093 3093 3093 3093 3092 3092 3091 3089 3089 3089 3089 3089 3090 3091 3092 3094 3096 3096 3098 3099 3100 3102 3103 3105 3106 3107 3108 3108 3109 3110 3111
3081 3080 3080 3079 3078 3077 3077 3076 3075 3073 3072 3072 3071 3071 3070 3070 3069 3069 3068 3068 3068 3068 3068 3069 3069 3069 3070 3070 3071 3071 3071 3072 3072 3074 3075 3075 3075 3076 3077 3078 3079 3080 3081 3082 3083 3085 3085 3085 3085 3085 3086 3087 3088 3089 3091 3092 3092 3092 3092 3092 3092 3090 3089 3089 3089 3088 3087 3087 3087 3089 3090 3091 3093 3095 3096 3097 3098 3100 3102 3103 3104 3105 3107 3107 3108 3109 3109 3110
3080 3079 3079 3078 3077 3076 3076 3075 3074 3073 3072 3071 3071 3070 3070 3069 3068 3068 3067 3067 3067 3067 3067 3067 3067 3068 3069 3069 3070 3070 3070 3071 3071 3073 3074 3075 3076 3076 3077 3077 3078 3078 3079 3081 3083 3084 3084 3084 3084 3084 3085 3086 3088 3090 3091 3091 3091 3091 3091 3091 3091 3090 3088 3088 3089 3087 3085 3085 3086 3088 3090 3091 3092 3094 3095 3097 3097 3099 3101 3101 3103 3105 3106 3107 3107 3108 3109 3109
3078 3078 3077 3076 3076 3075 3075 3074 3073 3072 3072 3071 3071 3070 3069 3068 3067 3066 3065 3065 3066 3065 3065 3065 3066 3067 3068 3068 3068 3069 3069 3070 3070 3071 3073 3074 3075 3076 3076 3077 3077 3078 3079 3080 3082 3083 3083 3083 3082 3083 3085 3087 3088 3089 3090 3090 3090 3090 3090 3090 3090 3090 3088 3087 3088 3086 3084 3084 3086 3087 3089 3090 3092 3094 3095 3096 3096 3097 3099 3100 3102 3104 3106 3106 3107 3108 3108 3109
3077 3077 3076 3075 3075 3074 3074 3073 3072 3072 3071 3071 3070 3070 3069 3068 3067 3066 3064 3064 3064 3063 3062 3063 3064 3065 3067 3067 3067 3067 3068 3069 3070 3070 3071 3073 3074 3075 3076 3076 3077 3078 3079 3080 3081 3081 3081 3081 3082 3083 3085 3086 3087 3088 3089 3089 3089 3089 3089 3089 3090 3089 3088 3087 3088 3087 3085 3085 3086 3087 3088 3089 3091 3093 3094 3095 3096 3096 3098 3100 3102 3104 3105 3106 3107 3107 3107 3108
3075 3075 3074 3074 3073 3073 3073 3072 3072 3071 3071 3070 3070 3069 3069 3068 3066 3065 3064 3062 3062 3061 3061 3061 3062 3064 3065 3066 3066 3067 3068 3069 3069 3069 3070 3071 3073 3074 3075 3076 3077 3078 3079 3079 3080 3080 3080 3080 3082 3083 3084 3085 3086 3087 3088 3088 3088 3088 3088 3089 3089 3089 3088 3087 3087 3087 3087 3087 3087 3088 3089 3090 3091 3092 3094 3095 3096 3097 3098 3100 3102 3104 3105 3105 3106 3107 3107 3108
3074 3073 3073 3072 3072 3072 3071 3071 3071 3070 3070 3069 3069 3068 3068 3067 3066 3066 3064 3062 3061 3060 3059 3060 3061 3062 3064 3065 3065 3066 3068 3068 3069 3069 3069 3070 3072 3073 3074 3075 3076 3077 3078 3079 3079 3079 3079 3080 3082 3083 3084 3084 3085 3086 3087 3087 3087 3087 3088 3088 3088 3088 3088 3087 3087 3088 3088 3088 3088 3089 3090 3091 3091 3092 3093 3094 3095 3096 3098 3099 3101 3103 3104 3105 3106 3107 3108 3108
3072 3072 3071 3071 3071 3070 3070 3070 3070 3069 3069 3068 3068 3068 3068 3067 3067 3066 3065 3062 3059 3059 3058 3058 3059 3061 3063 3063 3064 3066 3067 3067 3068 3069 3069 3070 3071 3073 3074 3075 3075 3076 3077 3078 3079 3079 3079 3080 3081 3082 3082 3083 3083 3084 3085 3086 3086 3086 3086 3087 3087 3087 3088 3087 3087 3087 3088 3088 3088 3089 3090 3092 3092 3092 3093 3093 3094 3095 3096 3098 3099 3101 3103 3104 3105 3106 3107 3108
3070 3069 3069 3069 3069 3069 3069 3068 3068 3068 3068 3067 3067 3068 3068 3067 3067 3066 3064 3062 3058 3057 3057 3057 3059 3060 3061 3061 3063 3065 3066 3066 3067 3068 3069 3070 3071 3072 3073 3074 3075 3076 3077 3078 3078 3078 3078 3079 3080 3081 3081 3081 3081 3082 3083 3085 3085 3085 3086 3086 3086 3087 3087 3087 3087 3087 3087 3088 3088 3088 3090 3091 3092 3092 3093 3093 3094 3094 3095 3096 3098 3100 3101 3103 3104 3106 3107 3107
3068 3067 3067 3067 3067 3067 3067 3067 3067 3067 3066 3066 3066 3067 3067 3067 3067 3066 3065 3062 3058 3057 3056 3057 3058 3058 3059 3061 3062 3064 3065 3065 3066 3067 3068 3069 3071 3072 3073 3074 3074 3076 3077 3078 3077 3077 3077 3078 3079 3079 3079 3080 3080 3080 3081 3083 3084 3085 3085 3085 3085 3085 3086 3086 3086 3087 3087 3087 3088 3088 3089 3090 3091 3092 3092 3093 3093 3093 3094 3095 3096 3098 3100 3102 3103 3105 3106 3107
3065 3065 3065 3065 3065 3065 3065 3065 3065 3065 3065 3065 3066 3067 3067 3067 3067 3066 3066 3064 3059 3056 3056 3056 3057 3058 3059 3060 3061 3063 3064 3064 3065 3066 3067 3069 3070 3071 3072 3073 3074 3075 3077 3077 3076 3076 3077 3077 3078 3078 3077 3078 3079 3080 3081 3082 3084 3084 3084 3084 3085 3085 3085 3086 3086 3086 3087 3087 3088 3088 3088 3089 3089 3090 3091 3092 3092 3093 3093 3094 3095 3097 3099 3101 3102 3104 3105 3106
3063 3062 3062 3063 3063 3063 3063 3064 3064 3064 3064 3064 3065 3066 3066 3067 3067 3066 3067 3065 3058 3055 3057 3057 3057 3058 3059 3060 3061 3062 3063 3064 3065 3066 3067 3068 3069 3070 3071 3072 3074 3074 3075 3076 3075 3076 3076 3076 3077 3077 3076 3077 3078 3079 3081 3082 3082 3083 3083 3083 3084 3084 3085 3085 3086 3086 3086 3087 3088 3088 3088 3089 3089 3089 3090 3091 3091 3092 3093 3094 3095 3096 3098 3099 3101 3103 3104 3105
3060 3059 3059 3060 3060 3060 3061 3062 3062 3062 3062 3063 3064 3065 3065 3067 3067 3067 3067 3062 3056 3056 3057 3057 3058 3058 3058 3059 3060 3061 3062 3063 3064 3065 3066 3067 3068 3069 3070 3071 3073 3074 3074 3075 3074 3075 3076 3076 3076 3076 3076 3077 3078 3079 3080 3081 3081 3082 3082 3082 3083 3084 3084 3085 3086 3086 3087 3088 3088 3088 3088 3089 3090 3089 3089 3089 3090 3091 3092 3093 3093 3094 3096 3098 3100 3102 3103 3104
3057 3057 3056 3057 3058 3058 3059 3060 3059 3060 3061 3062 3063 3063 3064 3065 3066 3067 3065 3059 3056 3057 3056 3056 3057 3057 3058 3058 3059 3059 3060 3061 3063 3063 3064 3066 3066 3067 3068 3069 3071 3072 3073 3073 3073 3074 3074 3075 3076 3076 3076 3076 3078 3079 3079 3080 3080 3081 3081 3081 3082 3083 3083 3084 3085 3085 3087 3088 3087 3087 3088 3089 3090 3088 3087 3088 3089 3089 3090 3091 3091 3092 3094 3097 3099 3100 3102 3104
3054 3053 3053 3054 3054 3055 3057 3057 3057 3058 3059 3060 3061 3062 3063 3064 3064 3062 3059 3056 3056 3056 3055 3056 3056 3056 3057 3057 3058 3059 3059 3060 3061 3062 3063 3064 3065 3065 3066 3067 3069 3070 3071 3071 3072 3072 3073 3074 3074 3075 3075 3075 3077 3077 3078 3078 3079 3079 3080 3080 3081 3083 3084 3084 3085 3086 3086 3087 3086 3087 3088 3088 3088 3087 3087 3087 3087 3087 3088 3089 3089 3090 3093 3096 3098 3099 3101 3103
3051 3050 3050 3051 3051 3053 3054 3054 3054 3055 3057 3058 3059 3059 3061 3062 3060 3057 3056 3056 3056 3056 3055 3055 3054 3055 3055 3056 3056 3057 3058 3059 3060 3061 3062 3063 3063 3064 3065 3066 3067 3069 3069 3070 3070 3071 3071 3072 3073 3074 3074 3074 3075 3076 3077 3077 3077 3077 3078 3079 3080 3082 3084 3086 3087 3087 3086 3085 3085 3086 3087 3087 3087 3087 3086 3086 3085 3086 3087 3088 3088 3089 3092 3095 3096 3098 3101 3102
3047 3046 3047 3047 3048 3050 3051 3051 3051 3053 3054 3056 3057 3058 3058 3058 3056 3054 3055 3055 3055 3055 3055 3054 3053 3054 3054 3054 3055 3056 3056 3057 3058 3060 3060 3061 3062 3062 3063 3065 3066 3067 3068 3069 3069 3069 3070 3070 3071 3072 3072 3073 3073 3074 3075 3075 3076 3076 3077 3077 3078 3079 3081 3082 3083 3083 3083 3083 3084 3085 3085 3085 3086 3086 3086 3085 3084 3084 3085 3087 3088 3089 3091 3093 3094 3096 3098 3100
3044 3043 3043 3044 3045 3047 3048 3048 3048 3049 3051 3053 3054 3055 3054 3054 3053 3053 3054 3054 3054 3054 3054 3053 3053 3053 3053 3053 3054 3055 3055 3055 3056 3058 3058 3059 3060 3061 3062 3063 3064 3065 3066 3067 3067 3068 3068 3069 3069 3070 3071 3071 3072 3072 3074 3074 3074 3074 3075 3075 3076 3076 3077 3079 3080 3080 3080 3081 3083 3083 3084 3085 3085 3086 3086 3085 3084 3084 3084 3085 3087 3088 3089 3091 3092 3094 3095 3097
3041 3040 3040 3040 3041 3043 3043 3044 3045 3046 3048 3050 3051 3050 3050 3051 3052 3053 3053 3053 3053 3053 3053 3053 3052 3052 3052 3052 3053 3053 3053 3053 3055 3056 3057 3057 3058 3059 3060 3061 3062 3063 3064 3065 3065 3066 3067 3067 3068 3069 3070 3070 3070 3071 3072 3072 3072 3072 3073 3073 3074 3075 3076 3077 3079 3079 3080 3081 3082 3083 3084 3085 3085 3085 3085 3085 3085 3085 3085 3085 3087 3088 3089 3090 3091 3092 3092 3093
3038 3037 3037 3036 3037 3038 3039 3041 3042 3043 3045 3047 3047 3046 3047 3049 3051 3051 3052 3052 3052 3052 3052 3052 3051 3051 3051 3051 3052 3052 3051 3052 3054 3055 3055 3056 3057 3057 3058 3059 3060 3061 3062 3063 3064 3064 3065 3066 3067 3068 3068 3068 3069 3070 3070 3070 3070 3071 3071 3072 3072 3074 3075 3076 3078 3081 3082 3083 3082 3082 3083 3084 3085 3084 3084 3085 3086 3086 3086 3086 3088 3089 3090 3091 3093 3094 3094 3094
3035 3034 3033 3032 3033 3035 3036 3037 3039 3040 3042 3043 3043 3044 3045 3047 3049 3050 3050 3051 3051 3052 3052 3051 3051 3050 3050 3050 3051 3051 3051 3051 3053 3054 3054 3055 3055 3056 3057 3058 3058 3058 3059 3061 3062 3062 3064 3065 3065 3066 3066 3066 3067 3069 3069 3069 3070 3070 3070 3071 3071 3072 3073 3074 3076 3080 3082 3084 3084 3083 3083 3083 3083 3083 3083 3084 3085 3086 3086 3087 3088 3089 3091 3093 3094 3095 3096 3096
3033 3031 3030 3029 3030 3032 3033 3034 3036 3038 3039 3040 3040 3042 3043 3044 3047 3049 3049 3049 3050 3050 3050 3050 3050 3049 3049 3049 3049 3050 3050 3050 3051 3052 3053 3053 3054 3054 3055 3056 3056 3056 3057 3059 3060 3061 3062 3063 3064 3065 3065 3065 3066 3067 3068 3069 3069 3069 3070 3070 3071 3071 3072 3072 3074 3075 3078 3082 3084 3083 3083 3083 3082 3083 3083 3083 3083 3085 3086 3087 3088 3089 3090 3092 3093 3093 3094 3095
3030 3029 3027 3027 3028 3029 3030 3032 3034 3035 3036 3037 3038 3040 3041 3043 3045 3047 3048 3048 3048 3048 3048 3048 3048 3048 3047 3048 3048 3048 3048 3049 3050 3051 3051 3051 3052 3053 3053 3054 3055 3055 3055 3056 3058 3059 3060 3061 3063 3064 3064 3064 3065 3066 3067 3068 3068 3069 3069 3070 3070 3070 3071 3072 3073 3074 3075 3079 3082 3083 3083 3082 3081 3082 3082 3081 3082 3084 3085 3087 3088 3088 3090 3091 3092 3093 3094 3095
3029 3027 3026 3027 3027 3027 3029 3031 3031 3033 3034 3035 3036 3038 3040 3042 3043 3044 3046 3046 3046 3046 3046 3046 3047 3046 3046 3046 3046 3046 3046 3047 3049 3050 3050 3050 3050 3051 3051 3053 3054 3054 3054 3056 3057 3058 3059 3060 3061 3063 3063 3063 3065 3066 3067 3067 3068 3068 3068 3068 3069 3069 3070 3071 3072 3074 3073 3075 3077 3079 3081 3081 3080 3081 3081 3081 3082 3083 3085 3087 3087 3088 3090 3092 3094 3095 3096 3097
3028 3026 3025 3026 3026 3026 3028 3029 3030 3031 3032 3034 3035 3037 3039 3040 3041 3042 3044 3044 3044 3044 3045 3045 3045 3045 3044 3044 3044 3045 3044 3045 3047 3048 3049 3049 3050 3050 3051 3052 3053 3054 3054 3055 3056 3057 3058 3059 3060 3062 3062 3063 3064 3065 3066 3067 3067 3067 3067 3067 3068 3068 3069 3069 3071 3072 3072 3074 3075 3076 3078 3079 3080 3081 3081 3081 3082 3083 3085 3087 3087 3088 3090 3092 3094 3095 3096 3096
3027 3025 3024 3025 3025 3026 3027 3028 3029 3030 3031 3033 3035 3037 3038 3038 3039 3040 3041 3042 3042 3042 3043 3043 3043 3043 3043 3042 3043 3044 3043 3043 3045 3047 3048 3048 3049 3050 3051 3051 3052 3053 3054 3055 3056 3057 3058 3058 3059 3061 3062 3063 3064 3064 3065 3066 3066 3066 3066 3067 3067 3068 3068 3068 3069 3070 3071 3073 3074 3075 3078 3079 3079 3080 3081 3082 3082 3083 3085 3086 3087 3088 3089 3091 3092 3093 3094 3094
3026 3024 3024 3024 3025 3025 3026 3027 3028 3029 3031 3032 3034 3035 3036 3036 3037 3038 3039 3039 3040 3040 3041 3041 3042 3042 3041 3041 3042 3043 3043 3042 3043 3045 3047 3048 3048 3049 3049 3050 3051 3052 3053 3055 3056 3057 3057 3057 3058 3059 3062 3064 3064 3064 3064 3065 3065 3065 3066 3067 3067 3067 3067 3068 3069 3069 3070 3072 3072 3074 3077 3078 3078 3080 3081 3081 3083 3083 3084 3086 3087 3088 3089 3089 3090 3091 3091 3092
3024 3024 3024 3023 3023 3024 3025 3025 3026 3028 3029 3031 3032 3033 3034 3035 3036 3036 3037 3037 3038 3039 3040 3040 3040 3040 3040 3041 3041 3041 3041 3041 3041 3043 3046 3047 3048 3048 3048 3049 3050 3051 3052 3054 3055 3056 3056 3056 3057 3057 3059 3062 3063 3063 3062 3064 3065 3065 3066 3067 3067 3067 3067 3067 3069 3069 3070 3071 3072 3073 3074 3076 3077 3079 3079 3081 3083 3084 3085 3085 3086 3087 3088 3089 3089 3090 3090 3091
3024 3024 3023 3023 3022 3022 3021 3023 3025 3026 3028 3029 3031 3032 3032 3033 3034 3034 3034 3035 3036 3037 3038 3039 3039 3039 3039 3040 3041 3041 3041 3040 3040 3042 3044 3045 3046 3046 3047 3048 3049 3050 3051 3053 3054 3054 3054 3055 3056 3056 3057 3058 3059 3061 3061 3063 3064 3065 3066 3067 3067 3066 3067 3067 3068 3069 3069 3070 3071 3072 3072 3074 3076 3077 3078 3080 3081 3083 3084 3085 3085 3086 3087 3088 3089 3089 3090 3090
3024 3023 3023 3023 3022 3021 3021 3022 3024 3025 3026 3028 3029 3030 3031 3032 3032 3033 3033 3034 3035 3036 3037 3037 3038 3038 3038 3039 3040 3041 3041 3040 3040 3041 3042 3044 3045 3046 3046 3047 3047 3048 3050 3052 3053 3053 3053 3054 3055 3056 3056 3057 3058 3060 3061 3062 3063 3065 3066 3066 3066 3066 3066 3067 3068 3069 3069 3070 3070 3071 3071 3072 3074 3075 3077 3078 3079 3081 3082 3083 3084 3085 3086 3087 3088 3089 3089 3090
3024 3024 3023 3023 3023 3023 3024 3024 3025 3025 3026 3026 3027 3029 3030 3031 3031 3032 3033 3034 3034 3035 3036 3036 3037 3038 3038 3038 3039 3040 3041 3041 3041 3041 3042 3043 3044 3045 3046 3046 3047 3048 3049 3050 3051 3051 3052 3054 3055 3056 3056 3057 3058 3059 3060 3062 3063 3064 3065 3065 3065 3065 3066 3066 3067 3068 3069 3069 3070 3070 3071 3072 3073 3074 3075 3076 3077 3078 3080 3081 3082 3083 3084 3085 3086 3087 3088 3089
3025 3025 3024 3024 3024 3025 3025 3026 3026 3026 3025 3025 3026 3028 3029 3030 3031 3031 3032 3033 3033 3034 3035 3036 3036 3037 3037 3038 3038 3039 3041 3041 3041 3042 3042 3043 3044 3044 3045 3046 3047 3047 3048 3049 3050 3050 3051 3053 3055 3055 3056 3057 3057 3058 3060 3062 3063 3063 3063 3064 3064 3065 3065 3065 3067 3068 3069 3069 3070 3070 3071 3072 3072 3073 3074 3075 3076 3077 3078 3079 3080 3081 3082 3083 3084 3085 3086 3086
3027 3027 3026 3026 3026 3026 3026 3027 3027 3027 3025 3025 3026 3028 3029 3029 3030 3031 3032 3032 3033 3033 3034 3035 3036 3036 3037 3038 3038 3039 3040 3041 3042 3042 3043 3043 3044 3044 3044 3045 3045 3046 3047 3048 3049 3049 3051 3053 3054 3054 3055 3056 3057 3058 3060 3061 3061 3062 3062 3063 3064 3064 3064 3065 3066 3067 3068 3069 3069 3070 3071 3072 3072 3072 3073 3074 3075 3076 3077 3077 3078 3079 3080 3080 3081 3082 3083 3083
3030 3029 3029 3028 3028 3028 3028 3028 3028 3028 3027 3026 3026 3028 3030 3030 3030 3031 3031 3032 3033 3033 3034 3035 3036 3036 3037 3037 3038 3038 3040 3041 3041 3042 3043 3044 3044 3044 3044 3044 3045 3045 3046 3046 3047 3048 3050 3051 3053 3054 3055 3056 3057 3058 3059 3059 3060 3061 3061 3062 3063 3063 3064 3064 3065 3066 3066 3067 3068 3069 3070 3071 3071 3071 3072 3073 3074 3075 3075 3076 3076 3077 3078 3078 3079 3079 3080 3080
3032 3031 3030 3030 3029 3029 3029 3028 3028 3028 3029 3029 3029 3030 3030 3030 3031 3031 3031 3032 3032 3033 3033 3034 3035 3036 3037 3037 3038 3038 3039 3040 3041 3042 3043 3043 3044 3044 3045 3045 3045 3045 3045 3046 3047 3048 3049 3050 3052 3053 3054 3055 3056 3057 3057 3058 3059 3060 3060 3061 3062 3062 3063 3063 3064 3064 3065 3066 3066 3067 3068 3069 3069 3070 3071 3072 3072 3073 3074 3074 3075 3076 3076 3076 3077 3077 3078 3078